Location: Possagno
(45.8500°N, 11.8667°E)
Time: 19:08:14
(UTC+00:00)

STARLINK-80 - Pass Details

Date: 07 June 2020
Orbit: 487 x 491 km, 53.0° (Epoch: 11 July)

Event Time Altitude Azimuth Distance (km) Brightness Sun altitude
Exits shadow 00:20:54 54° 246° (WSW) 604 3.5 -19.6°
Maximum altitude 00:21:42 85° 330° (NNW) 499 3.3 -19.5°
Drops below altitude 10° 00:25:32 10° 58° (ENE) 1,688 6.8 -19.3°
Sets 00:27:42 0° 59° (ENE) 2,572 7.8 -19.2°
